Location: Unspecified
(0.0000°N, 0.0000°E)
Time: 11:26:11
(UTC+02:00)

Iridium 84 - Visible Passes

Search period start: 31 July 2014 00:00
Search period end: 10 August 2014 00:00
Orbit: 776 x 779 km, 86.4° (Epoch: 30 July)

Date Brightness Start Highest point End Pass type
(mag) Time Alt. Az. Time Alt. Az. Time Alt. Az.
31 Jul 5.5 22:01:30 10° N 22:06:41 76° W 22:06:41 76° W visible
01 Aug 5.7 21:28:15 10° NNE 21:33:14 48° E 21:34:07 43° ESE visible
02 Aug 6.7 20:55:52 10° NE 20:59:47 22° E 21:01:38 18° ESE visible
02 Aug 7.8 22:36:22 10° NW 22:40:12 21° W 22:42:11 17° WSW visible
03 Aug 6.4 22:01:47 10° NNW 22:06:44 46° W 22:09:50 22° SSW visible
04 Aug 5.4 21:28:05 10° N 21:33:17 79° E 21:37:41 15° S visible
05 Aug 6.1 20:55:08 10° NNE 20:59:49 35° E 21:04:31 10° SSE visible
05 Aug 8.4 22:38:04 10° WNW 22:40:15 13° W 22:42:26 10° WSW visible
06 Aug 7.4 22:02:23 10° NNW 22:06:47 28° W 22:11:13 10° SSW visible
07 Aug 5.9 21:28:12 10° N 21:33:20 64° W 21:38:29 10° S visible
08 Aug 5.6 20:54:47 10° NNE 20:59:52 57° E 21:04:58 10° SSE visible
09 Aug 8.2 22:03:26 10° NW 22:06:50 18° W 22:10:15 10° SW visible
